Location: Fountain Hills
(33.6120°N, 111.7170°W)
Time: 12:50:59
(UTC-07:00)

Daily predictions for brighter satellites

Satellite Brightness Start Highest point End
(mag) Time Altitude Azimuth Time Altitude Azimuth Time Altitude Azimuth
Resurs 01 Rocket 2.3 20:00:34 10° SE 20:04:38 38° ENE 20:08:44 10° N
ERS-2 3.5 20:01:46 10° SE 20:04:44 23° ENE 20:07:42 10° NNE
Cosmos 1758 3.8 20:01:23 10° NNW 20:05:27 68° W 20:09:26 10° S
USA 215 4.2 20:00:33 10° E 20:06:27 38° NE 20:12:22 10° NNW
Cosmos 1048 Rocket 4.2 20:01:24 10° S 20:06:31 53° ESE 20:11:43 10° NNE
OAO 3 Rocket 3.5 20:03:27 10° W 20:08:26 77° N 20:13:23 10° E
OAO 3 Copernicus 4.4 20:07:58 10° W 20:13:04 89° SSW 20:18:08 10° ESE
Cosmos 1825 Rocket 4.1 20:09:44 10° SSE 20:13:54 41° E 20:18:05 10° NNE
Hubble Space Telescope 3.1 20:12:36 10° SW 20:14:26 13° SSW 20:16:15 10° S
SL-8 R/B 4.0 20:10:32 10° WSW 20:15:21 75° NW 20:20:12 10° NE
Cosmos 1315 Rocket 3.4 20:13:37 10° SSE 20:17:22 38° E 20:21:11 10° NNE
Cosmos 2278 Rocket 4.0 20:19:36 10° ESE 20:21:06 11° E 20:22:36 10° E
Cosmos 1943 3.5 20:15:50 10° NNW 20:21:27 68° WSW 20:27:01 10° S
H-II Stage 2 3.5 20:16:20 10° SW 20:21:38 18° S 20:23:56 11° SE
ARGOS 4.5 20:18:07 10° ESE 20:22:22 24° ENE 20:26:37 10° NNE
Cosmos 1953 3.0 20:18:46 10° NNW 20:22:42 57° W 20:26:37 10° S
Spot 2 Rocket 3.8 20:23:07 10° SSE 20:28:00 52° ENE 20:32:55 10° N
Cosmos 1420 Rocket 4.0 20:28:40 10° NNW 20:33:52 78° ENE 20:39:03 10° SSE
Cosmos 1452 Rocket 3.5 20:29:14 10° NNW 20:34:32 89° W 20:39:49 10° SSE
Cosmos 1844 Rocket 2.7 20:31:33 10° S 20:37:07 62° ESE 20:42:42 10° NNE
YAOGAN 6 4.1 20:35:19 10° SSW 20:38:33 33° W 20:41:45 10° NNW
NOAA 11 4.2 20:35:48 10° SSE 20:41:13 85° ENE 20:46:39 10° N
Cosmos 1400 Rocket 4.4 20:38:41 10° SSW 20:42:27 37° WNW 20:46:10 10° N
Cosmos 1844 3.8 20:38:14 10° S 20:43:41 53° ESE 20:49:16 10° NNE
Cosmos 1238 Rocket 2.2 20:42:40 13° SSE 20:45:07 51° E 20:48:01 10° NNE
CZ-3 Stage 3 3.3 20:42:47 10° WSW 20:45:59 64° S 20:59:29 10° E
Cosmos 2084 4.1 20:47:02 10° NNW 20:50:35 35° NE 20:52:41 20° ESE
SAR-Lupe-3 4.4 20:48:01 10° NNE 20:51:38 82° ESE 20:55:10 10° S
Cosmos 2285 Rocket 4.1 20:45:25 10° SSW 20:51:44 82° WNW 20:58:05 10° NNE
Lacrosse 5 3.9 20:47:46 10° WSW 20:52:14 31° NW 20:56:43 10° NNE
Cosmos 1346 Rocket 3.5 20:48:50 10° N 20:52:35 36° ENE 20:54:36 22° SE
ATLAS 5 CENTAUR R/B 3.6 20:55:48 12° E 20:55:48 12° E 20:56:40 10° ENE
ATLAS 3B R/B 4.0 20:50:17 10° N 20:55:39 25° NE 21:00:07 13° E
Cosmos-2242 3.6 20:51:40 10° N 20:55:51 42° E 20:58:12 22° SE
Cosmos 2266 Rocket 4.3 20:51:05 10° N 20:57:25 70° W 21:03:37 10° S
Cosmos 494 Rocket 3.9 20:55:45 10° S 21:00:56 67° ESE 21:06:10 10° NNE
Meteor 1-24 Rocket 3.9 20:55:51 10° S 21:01:52 88° E 21:07:55 10° N
H-2A R/B 2.5 20:59:23 21° SE 21:02:36 46° ENE 21:07:45 10° N
Timation 1 Rocket 4.4 21:00:18 10° SSW 21:06:15 85° WNW 21:12:15 10° NNE
Helios 1B rocket 4.3 21:08:26 10° ENE 21:10:02 15° E 21:10:02 15° E
Cosmos 1908 3.8 21:08:37 10° N 21:12:17 40° E 21:13:18 33° ESE
Cosmos 1340 3.9 21:13:54 10° NNE 21:17:06 25° ENE 21:17:22 25° E
Nadezhda 2 Rocket 4.4 21:10:57 10° N 21:17:12 89° E 21:21:50 19° S
SEDSat Delta rocket 3.6 21:17:02 10° WSW 21:22:11 45° SSE 21:23:43 34° ESE
ATLAS 2AS CENTAUR R/B 3.8 21:15:37 10° SW 21:23:09 54° NW 21:31:05 10° NNE
Cosmos 1437 3.1 21:21:07 10° NNW 21:24:15 59° W 21:25:11 38° SSW
Aurora 2 Rocket 4.1 21:19:02 10° WSW 21:24:45 42° S 21:28:29 27° ESE
Cosmos 1553 Rocket 3.9 21:22:24 20° S 21:26:44 72° E 21:32:48 10° N
Cosmos 1674 2.8 21:25:09 23° SSW 21:27:23 71° W 21:31:12 10° N
MetOp-B 4.1 21:25:04 28° SSE 21:27:56 82° ENE 21:33:18 10° N
OE (NEXTSAT) 4.3 21:24:37 10° NW 21:28:10 76° NE 21:28:45 57° E
ERS-1 Rocket 3.1 21:26:45 34° SE 21:28:44 59° ENE 21:33:41 10° N
DMSP B5D2-2 4.0 21:29:43 10° NNE 21:34:56 69° ESE 21:37:28 31° S
Cosmos 1300 4.3 21:33:53 10° NNE 21:36:28 22° ENE 21:36:28 22° ENE
Cosmos 2251 Rocket 3.4 21:37:15 24° S 21:40:32 78° ESE 21:45:52 10° NNE
Resurs 01 Rocket 4.2 21:38:40 10° SW 21:41:13 15° W 21:43:47 10° WNW
Cosmos 1726 2.0 21:37:51 10° N 21:41:36 70° E 21:41:48 68° ESE
Terra 3.2 21:41:23 23° E 21:41:53 23° ENE 21:45:38 10° NNE
Meteor 2-1 Rocket 4.3 21:37:32 10° N 21:43:30 89° E 21:46:08 35° S
Meteor 2-10 4.2 21:38:37 10° N 21:44:06 68° E 21:45:55 42° SSE
Cosmos 724 4.3 21:38:19 10° NNW 21:44:24 81° WSW 21:46:54 38° SSE
Cosmos 2221 3.8 21:41:46 10° NNE 21:45:02 25° ENE 21:45:02 25° ENE
Cosmos 921 Rocket 3.4 21:44:39 10° NNW 21:49:05 60° WSW 21:50:23 42° SSW
USA 215 3.6 21:46:11 32° SSE 21:49:12 56° SW 21:55:39 10° NW
OAO 3 Rocket 3.1 21:47:09 10° W 21:52:08 90° ENE 21:53:18 53° ESE
Cosmos 1461 3.5 21:52:07 13° SW 21:56:13 65° WNW 22:00:56 10° NNE
NOSS 2-2 (E) 3.4 21:59:03 63° NE 21:59:03 63° NE 22:02:34 10° NNE
NOSS 3-4 (A) 3.4 21:54:28 10° SSW 22:00:37 82° WNW 22:06:58 10° NNE
NOSS 3-4 (C) 3.4 21:54:34 10° SSW 22:00:42 83° WNW 22:07:03 10° NNE
CZ-2C R/B 4.1 22:00:37 34° E 22:01:38 37° ENE 22:06:52 10° N
ARGOS 4.3 21:59:19 21° SSW 22:02:20 36° W 22:07:20 10° NNW
CENTAUR R/B 4.5 21:56:02 10° N 22:02:42 28° NE 22:07:22 17° E
Cosmos 2278 Rocket 2.3 22:00:36 22° SSW 22:04:23 75° WNW 22:10:06 10° NNE
IGS 5A 3.9 22:09:47 49° NE 22:09:47 49° NE 22:13:20 10° N
BREEZE-M DEB (TANK) 4.2 21:57:41 10° SW 22:11:27 84° SE 22:15:49 10° NE
APEX 3.8 22:12:21 10° NNW 22:14:55 51° NNW 22:14:55 51° NNW
SL-14 R/B 4.0 22:20:17 49° WNW 22:20:17 49° WNW 22:23:58 10° N
CARTOSAT-1 3.8 22:21:01 64° NNE 22:21:01 64° NNE 22:24:51 10° N
Nimbus 7 Rocket 4.3 22:18:26 10° NNE 22:24:28 71° ESE 22:25:13 63° SSE
SPOT 5 3.3 22:24:53 52° SW 22:25:36 58° W 22:30:46 10° NNW
Cosmos 1745 Rocket 4.3 22:20:31 10° NNW 22:26:41 60° W 22:28:39 42° SSW
COSMOS 2406 3.8 22:21:54 10° NNW 22:27:23 47° WSW 22:28:30 42° SW
NOSS 2-2 (D) 4.1 22:29:52 49° NNW 22:29:52 49° NNW 22:33:26 10° NNE
Cosmos 1076 Rocket 4.1 22:32:29 54° N 22:32:29 54° N 22:35:48 10° N
ATLAS 5 CENTAUR R/B 2.6 22:37:14 36° W 22:38:24 44° NW 22:42:58 10° NNE
Cosmos 1626 3.7 22:40:50 34° NNW 22:40:50 34° NNW 22:43:10 10° N
Helios 1A 4.3 22:41:42 33° W 22:41:42 33° W 22:45:08 10° NNW
SPOT 1/Viking Rocket 4.3 22:41:25 40° WSW 22:41:56 41° W 22:46:46 10° NNW
H-2A R/B 4.2 22:40:01 14° WSW 22:42:13 18° W 22:45:46 10° NW
Helios 1B rocket 3.9 22:42:33 10° N 22:46:11 32° WNW 22:46:22 31° WNW
ATLAS 3B R/B 2.8 22:40:14 10° NW 22:46:37 55° WSW 22:47:22 52° SW
Cosmos 2297 3.6 22:48:47 87° WNW 22:48:47 87° WNW 22:54:31 10° NNE
Cosmos 1241 Rocket 4.4 22:52:17 61° SW 22:53:20 77° WNW 22:59:35 10° NNE
SL-08 ROCKET BODY 4.3 22:48:10 10° N 22:54:23 88° E 22:54:34 84° SSE
Cosmos 2082 Rocket 2.5 22:51:20 10° NNW 22:56:41 58° NE 22:56:41 58° NE
Cosmos 1833 Rocket 2.8 22:51:47 10° NNW 22:57:01 66° NE 22:57:01 66° NE
Cosmos 1709 Rocket 4.0 22:53:50 10° NNW 22:59:58 67° W 23:00:25 64° WSW
ATLAS 3B CENTAUR R/B 3.3 22:46:06 10° WSW 23:01:26 57° S 23:01:26 57° S
CZ-2C R/B 2.8 22:57:26 10° N 23:02:37 68° WNW 23:02:37 68° WNW
NOSS 3-2 (A) 4.3 22:55:26 10° NW 23:03:04 57° WSW 23:04:29 51° SSW
Meteor 1-27 4.4 22:59:57 10° N 23:05:18 64° NE 23:05:18 64° NE
Cosmos 1943 Rocket 4.4 23:11:43 12° ENE 23:11:43 12° ENE 23:12:23 10° ENE
Cosmos 1455 4.4 23:07:26 10° N 23:09:00 23° N 23:09:00 23° N
Cosmos 2074 Rocket 4.2 23:08:01 10° N 23:13:52 61° ENE 23:13:52 61° ENE
Meteor 2-19 Rocket 4.5 23:08:32 10° N 23:14:37 72° W 23:14:37 72° W
RESURS DK-1 4.3 23:17:46 28° NW 23:17:46 28° NW 23:20:33 10° N
Terra 3.4 23:20:16 27° WNW 23:20:16 27° WNW 23:23:34 10° NW
NOSS 3-2 (C) 4.3 23:21:26 10° NW 23:29:01 53° WSW 23:29:39 52° SW
ADEOS Rocket 3.2 23:40:04 10° NNE 23:45:35 70° NE 23:45:35 70° NE
Meteor 2-10 Rocket 4.4 23:47:06 10° N 23:50:48 47° N 23:50:48 47° N
Cosmos 2184 Rocket 4.3 23:47:39 10° NNW 23:53:16 60° WNW 23:53:16 60° WNW
